Location: Unspecified
(43.8044°N, 11.0278°E)
Time: 13:55:30
(UTC+02:00)

Resurs 1-4 Rocket - Visible Passes

Search period start: 31 May 2016 00:00
Search period end: 10 June 2016 00:00
Orbit: 800 x 814 km, 98.4° (Epoch: 30 May)

Date Brightness Start Highest point End Pass type
(mag) Time Alt. Az. Time Alt. Az. Time Alt. Az.
31 May 2.2 04:10:35 10° NNE 04:15:57 79° ESE 04:21:16 10° S visible
01 Jun 2.9 03:46:12 10° NNE 03:51:21 48° E 03:56:29 10° S visible
02 Jun 3.7 03:22:02 10° NE 03:26:40 29° E 03:31:16 10° SSE visible
02 Jun 2.8 05:01:40 10° N 05:06:35 38° WNW 05:11:27 10° SW visible
03 Jun 4.3 02:58:18 10° NE 03:01:54 18° E 03:05:28 10° SE visible
03 Jun 2.3 04:36:54 10° N 04:42:10 62° WNW 04:47:24 10° SSW visible
04 Jun 4.7 02:36:11 10° ENE 02:37:02 10° E 02:37:52 10° E visible
04 Jun 2.2 04:12:18 10° NNE 04:17:40 82° ESE 04:23:00 10° SSW visible
05 Jun 2.8 03:47:53 10° NNE 03:53:05 50° E 03:58:14 10° S visible
06 Jun 3.6 03:23:43 10° NNE 03:28:25 31° E 03:33:05 10° SSE visible
07 Jun 4.3 02:59:56 10° NE 03:03:39 19° E 03:07:20 10° SE visible
07 Jun 2.3 04:38:38 10° N 04:43:53 59° WNW 04:49:06 10° SSW visible
08 Jun 4.7 02:37:24 10° ENE 02:38:47 11° E 02:40:10 10° ESE visible
08 Jun 2.2 04:14:01 10° NNE 04:19:24 85° ESE 04:24:43 10° SSW visible
09 Jun 2.8 03:49:36 10° NNE 03:54:49 52° E 04:00:00 10° S visible
